Location: Siratepeler Tepesi
(39.1042°N, 32.0781°E)
Time: 00:40:14
(UTC+00:00)

SL-19 R/B - Pass Details

Date: 11 April 2026
Orbit: 796 x 1007 km, 99.5° (Epoch: 13 May)

Event Time Altitude Azimuth Distance (km) Brightness Sun altitude
Rises 16:59:48 0° 165° (SSE) 3,283 6.9 -7.4°
Reaches altitude 10° 17:02:05 10° 165° (SSE) 2,358 6.2 -7.8°
Maximum altitude 17:07:16 87° 255° (WSW) 811 4.2 -8.7°
Drops below altitude 10° 17:12:37 10° 345° (NNW) 2,430 7.1 -9.7°
Sets 17:15:01 0° 346° (NNW) 3,391 7.9 -10.2°
